Location: Killam
(52.7910°N, 111.8608°W)
Time: 12:52:35
(UTC+00:00)

AO-73 - Pass Details

Date: 15 March 2026
Orbit: 514 x 567 km, 97.8° (Epoch: 13 April)

Event Time Altitude Azimuth Distance (km) Brightness Sun altitude
Rises 12:02:22 0° 9° (N) 2,683 ? -15.6°
Reaches altitude 10° 12:04:35 10° 1° (N) 1,780 ? -15.3°
Maximum altitude 12:08:10 39° 292° (WNW) 794 ? -14.8°
Enters shadow 12:09:42 26° 243° (WSW) 1,044 ? -14.5°
